Norman Wells, Northwest Territories

1:14 PM MDT on September 29, 2016 (GMT -0600)
Norman Wells

Weather History for CYVQ - December, 2013

Change the Weather History Date:

Tuesday, December 31, 2013

  Actual Average Record
Temperature  
Mean Temperature -48 °F -  
Max Temperature -43 °F -4 °F 26 °F (2015)
Min Temperature -52 °F -16 °F -52 °F (2013)
Degree Days  
Heating Degree Days 112    
Moisture  
Dew Point -56 °F    
Average Humidity 60    
Maximum Humidity 66    
Minimum Humidity 39    
Precipitation  
Precipitation 0.00 in - - ()
Sea Level Pressure  
Sea Level Pressure 30.49 in    
Wind  
Wind Speed 3 mph ()    
Max Wind Speed 6 mph    
Max Gust Speed -    
Visibility 3.3 miles    
Events Fog , Snow    
Averages and records for this station are not official NWS values.
T = Trace of Precipitation, MM = Missing Value Source: Averaged Metar Reports

Daily Weather History Graph

Daily Weather History Graph

Search for Another Location

Airport or City:

Trip Planner

Search our weather history database for the weather conditions in past years. The results will help you decide how hot, cold, wet, or windy it might be!

Date:

Astronomy

Dec. 31, 2013 Rise Set
Actual Time 11:39 AM MST 3:21 PM MST
Civil Twilight 10:13 AM MST 4:47 PM MST
Nautical Twilight 9:00 AM MST 6:00 PM MST
Astronomical Twilight 7:58 AM MST 7:03 PM MST
Moon 10:05 AM MST (12/31) 3:38 PM MST (12/31)
Length of Visible Light 6h 34m
Length of Day
3h 41m
Waning Crescent, 1% of the Moon is Illuminated
Dec 31
Waning Crescent
Jan 1
New
Jan 7
First Quarter
Jan 15
Full
Jan 23
Last Quarter

Hourly Weather History & Observations

Time (MST) Temp. Windchill Dew Point Humidity Pressure Visibility Wind Dir Wind Speed Gust Speed Precip Events Conditions
12:00 AM -47.2 °F - -54.4 °F 66% 30.39 in 4.0 mi NNW 2.3 mph - N/A   Ice Crystals
1:00 AM -47.2 °F - -56.2 °F 59% 30.39 in 4.0 mi NW 2.3 mph - N/A   Ice Crystals
2:00 AM -47.2 °F -67.6 °F -54.4 °F 66% 30.39 in 5.0 mi West 5.8 mph - N/A   Ice Crystals
3:00 AM -49.0 °F - -58.0 °F 59% - 5.0 mi NW 2.3 mph - N/A   Ice Crystals
4:00 AM -47.2 °F -65.0 °F -56.2 °F 59% 30.43 in 5.0 mi WNW 4.6 mph - N/A   Ice Crystals
5:00 AM -49 °F - -57 °F 40% 30.44 in 5 mi WNW 3.5 mph - - Snow Snow
5:00 AM -49.0 °F - -58.0 °F 59% 30.44 in 5.0 mi NW 3.5 mph - N/A   Ice Crystals
6:00 AM -49.0 °F - -58.0 °F 59% 30.44 in 5.0 mi Calm Calm - N/A   Ice Crystals
6:48 AM -47.2 °F - -54.4 °F 66% 30.44 in 2.5 mi SW 2.3 mph - N/A   Ice Crystals
7:00 AM -49.0 °F - -58.0 °F 59% 30.44 in 2.5 mi Calm Calm - N/A   Ice Crystals
7:08 AM -49.0 °F - -56.2 °F 66% 30.44 in 4.0 mi WNW 2.3 mph - N/A   Ice Crystals
8:00 AM -50.8 °F - -58.0 °F 66% 30.45 in 6.0 mi NNW 3.5 mph - N/A   Ice Crystals
9:00 AM -50.8 °F - -58.0 °F 66% 30.47 in 4.0 mi Calm Calm - N/A   Ice Crystals
9:14 AM -50.8 °F - -58.0 °F 66% 30.47 in 1.0 mi WNW 2.3 mph - N/A   Ice Crystals
9:46 AM -50.8 °F - -58.0 °F 66% 30.47 in 2.5 mi WNW 2.3 mph - N/A   Ice Crystals
10:00 AM -50.8 °F - -59.8 °F 59% 30.48 in 10.0 mi Calm Calm - N/A   Ice Crystals
11:00 AM -52 °F - -60 °F 42% 30.49 in 4 mi ENE 2.3 mph - - Snow Snow
11:00 AM -50.8 °F - -59.8 °F 59% 30.49 in 4.0 mi ENE 2.3 mph - N/A   Ice Crystals
11:53 AM -50.8 °F - -58.0 °F 66% 30.49 in 1.5 mi Calm Calm - N/A   Ice Crystals
12:00 PM -50.8 °F - -58.0 °F 66% 30.50 in 1.5 mi Calm Calm - N/A   Ice Crystals
12:21 PM -50.8 °F - -58.0 °F 66% 30.50 in 1.0 mi NE 3.5 mph - N/A   Ice Crystals
1:00 PM -49.0 °F - -58.0 °F 59% 30.50 in 1.0 mi East 3.5 mph - N/A   Ice Crystals
1:44 PM -49.0 °F - -56.2 °F 66% 30.51 in 2.0 mi ENE 3.5 mph - N/A Fog Ice Crystals
2:00 PM -45.4 °F -59.7 °F -54.4 °F 60% 30.51 in 1.0 mi East 3.5 mph - N/A   Ice Crystals
2:44 PM -45.4 °F - -52.6 °F 66% 30.51 in 3.0 mi ESE 2.3 mph - N/A   Ice Crystals
2:54 PM -43.6 °F - -52.6 °F 60% 30.51 in 2.0 mi South 2.3 mph - N/A   Ice Crystals
3:00 PM -43.6 °F - -52.6 °F 60% 30.51 in 2.0 mi South 2.3 mph - N/A   Ice Crystals
3:40 PM -45.4 °F - -54.4 °F 60% 30.53 in 1.0 mi ENE 2.3 mph - N/A   Ice Crystals
4:00 PM -47.2 °F -61.8 °F -54.4 °F 66% 30.53 in 1.0 mi East 3.5 mph - N/A   Ice Crystals
4:50 PM -47.2 °F -61.8 °F -54.4 °F 66% 30.53 in 2.0 mi East 3.5 mph - N/A   Ice Crystals
5:00 PM -47 °F - -55 °F 41% 30.53 in 2 mi East 3.5 mph - - Snow Snow
5:00 PM -47.2 °F -61.8 °F -54.4 °F 66% 30.53 in 2.0 mi East 3.5 mph - N/A   Ice Crystals
5:29 PM -49.0 °F - -58.0 °F 59% 30.55 in 1.0 mi ENE 3.5 mph - N/A   Ice Crystals
6:00 PM -45.4 °F -62.9 °F -54.4 °F 60% 30.54 in 2.0 mi ESE 4.6 mph - N/A   Ice Crystals
6:24 PM -49.0 °F - -58.0 °F 59% 30.55 in 4.0 mi NE 4.6 mph - N/A Fog Ice Crystals
7:00 PM -49.0 °F - -58.0 °F 59% 30.55 in 4.0 mi NE 4.6 mph - N/A Fog Ice Crystals
8:00 PM -43.6 °F -60.8 °F -52.6 °F 60% 30.53 in 6.0 mi SE 4.6 mph - N/A Fog Ice Crystals
9:00 PM -45.4 °F -62.9 °F -54.4 °F 60% 30.54 in 4.0 mi ESE 4.6 mph - N/A Fog Ice Crystals
10:00 PM -45.4 °F -59.7 °F -52.6 °F 66% 30.53 in 4.0 mi SE 3.5 mph - N/A Fog Ice Crystals
11:00 PM -50 °F - -59 °F 39% 30.55 in 5 mi NE 5.8 mph - - Snow Snow
11:00 PM -50.8 °F - -58.0 °F 66% 30.55 in 5.0 mi NE 5.8 mph - N/A Fog Ice Crystals